Location: Izdebno
(52.6670°N, 16.2170°E)
Time: 04:12:27
(UTC+02:00)

SR - Pass Details

Date: 02 March 2024
Orbit: 577 x 862 km, 66.7° (Epoch: 22 April)

Event Time Altitude Azimuth Distance (km) Brightness Sun altitude
Rises 22:51:13 0° 315° (NW) 3,208 ? -41.5°
Reaches altitude 10° 22:53:56 10° 305° (NW) 2,227 ? -41.7°
Enters shadow 22:53:59 10° 305° (NW) 2,212 ? -41.7°
Maximum altitude 22:58:12 28° 247° (WSW) 1,274 - -42.0°
Drops below altitude 10° 23:02:11 10° 189° (S) 2,056 - -42.2°
Sets 23:04:37 0° 177° (S) 2,917 - -42.3°
